Location: Belfast
(54.5830°N, 5.9330°W)
Time: 17:35:12
(UTC+00:00)

ISS - Pass Details

Date: 26 May 2017
Orbit: 401 x 407 km, 51.6° (Epoch: 18 November)

Event Time Altitude Azimuth Distance (km) Brightness Sun altitude
Rises 02:17:36 0° 274° (W) 2,358 0.0 -13.3°
Reaches altitude 10° 02:19:47 10° 265° (W) 1,490 -1.2 -13.2°
Maximum altitude 02:22:53 36° 197° (SSW) 669 -3.3 -13.1°
Drops below altitude 10° 02:25:58 10° 129° (SE) 1,475 -1.2 -13.0°
Sets 02:28:07 0° 121° (ESE) 2,331 -0.1 -12.9°
